Location: Kunchanapalle
(16.4623°N, 80.6176°E)
Time: 18:55:50
(UTC+00:00)

NOSS 3-4 (A) - Pass Details

Date: 13 August 2020
Orbit: 886 x 1326 km, 63.4° (Epoch: 19 September)

Event Time Altitude Azimuth Distance (km) Brightness Sun altitude
Exits shadow 23:37:20 12° 234° (SW) 2,380 4.9 -10.9°
Maximum altitude 23:42:09 36° 298° (WNW) 1,361 4.0 -9.8°
Drops below altitude 10° 23:47:32 10° 4° (N) 2,574 6.0 -8.6°
Sets 23:50:18 0° 13° (NNE) 3,549 6.9 -8.0°
